Jackson, WY

5:03 PM MST on December 14, 2019 (GMT -0700)
Jackson Hole

Weather History for KJAC - October, 2019

Change the Weather History Date:

Wednesday, October 2, 2019

  Actual Average Record
Temperature  
Mean Temperature 34 °F -  
Max Temperature 42 °F 64 °F 82 °F (1992)
Min Temperature 24 °F 28 °F 17 °F (1959)
Degree Days  
Heating Degree Days 32    
Moisture  
Dew Point 25 °F    
Average Humidity 72    
Maximum Humidity 92    
Minimum Humidity 40    
Precipitation  
Precipitation 0.00 in - - ()
Sea Level Pressure  
Sea Level Pressure 30.16 in    
Wind  
Wind Speed 6 mph ()    
Max Wind Speed 17 mph    
Max Gust Speed 32 mph    
Visibility 7.7 miles    
Events Rain , Snow    
Averages and records for this station are not official NWS values.
T = Trace of Precipitation, MM = Missing Value Source: Averaged Metar Reports

Daily Weather History Graph

Daily Weather History Graph

Search for Another Location

Airport or City:

Astronomy

Oct. 02, 2019 Rise Set
Actual Time 7:21 AM MDT 7:02 PM MDT
Civil Twilight 6:52 AM MDT 7:30 PM MDT
Nautical Twilight 6:19 AM MDT 8:04 PM MDT
Astronomical Twilight 5:45 AM MDT 8:37 PM MDT
Moon 11:58 AM MDT (10/2) 9:50 PM MDT (10/2)
Length of Visible Light 12h 38m
Length of Day
11h 40m
Waxing Crescent, 21% of the Moon is Illuminated
Oct 2
Waxing Crescent
Oct 5
First Quarter
Oct 13
Full
Oct 21
Last Quarter
Oct 27
New

Hourly Weather History & Observations

Time (MDT) Temp. Windchill Dew Point Humidity Pressure Visibility Wind Dir Wind Speed Gust Speed Precip Events Conditions
12:56 AM 34.0 °F - 30.9 °F 89% 30.01 in 10.0 mi Calm Calm - 0.00 in Rain Light Rain
1:56 AM 34.0 °F 27.2 °F 30.0 °F 85% 30.00 in 10.0 mi South 8.1 mph - 0.00 in Rain Light Rain
2:16 AM 33.8 °F 29.6 °F 30.2 °F 87% 30.01 in 2.5 mi SSE 4.6 mph - 0.00 in Snow Light Snow
2:21 AM 33.8 °F 27.7 °F 30.2 °F 87% 30.01 in 3.0 mi South 6.9 mph - 0.00 in Snow Light Snow
2:31 AM 33.8 °F 29.6 °F 30.2 °F 87% 30.01 in 5.0 mi South 4.6 mph - 0.00 in Snow Light Snow
2:56 AM 33.1 °F - 30.9 °F 92% 30.02 in 10.0 mi Calm Calm - 0.00 in Rain Light Rain
3:56 AM 32.0 °F - 30.0 °F 92% 30.01 in 10.0 mi Calm Calm - 0.00 in   Mostly Cloudy
4:56 AM 30.9 °F 27.5 °F 28.9 °F 92% 30.02 in 10.0 mi WSW 3.5 mph - N/A   Mostly Cloudy
5:56 AM 32.0 °F 26.4 °F 28.9 °F 88% 30.03 in 10.0 mi South 5.8 mph - N/A   Overcast
6:56 AM 30.9 °F 27.5 °F 28.0 °F 89% 30.07 in 10.0 mi West 3.5 mph - N/A   Overcast
7:56 AM 30.9 °F 22.2 °F 27.0 °F 85% 30.11 in 10.0 mi South 10.4 mph - N/A   Mostly Cloudy
8:56 AM 32.0 °F 22.1 °F 28.9 °F 88% 30.14 in 9.0 mi South 13.8 mph - 0.00 in Snow Light Snow
9:13 AM 32.0 °F 23.0 °F 28.4 °F 87% 30.08 in 10.0 mi South 11.5 mph - N/A   Mostly Cloudy
9:56 AM 34.0 °F 25.5 °F 28.0 °F 79% 30.17 in 10.0 mi SW 11.5 mph - 0.00 in   Mostly Cloudy
10:14 AM 33.8 °F 23.9 °F 26.6 °F 75% 30.12 in 2.5 mi WSW 15.0 mph - 0.00 in Rain Light Rain
10:33 AM 33.8 °F 27.7 °F 26.6 °F 75% 30.12 in 4.0 mi SW 6.9 mph - 0.00 in Snow Light Snow
10:56 AM 35.1 °F 30.1 °F 23.0 °F 61% 30.18 in 9.0 mi WSW 5.8 mph - 0.00 in   Overcast
11:47 AM 37.4 °F 29.8 °F 21.2 °F 52% 30.13 in 10.0 mi West 11.5 mph 21.9 mph N/A   Mostly Cloudy
11:53 AM 35.6 °F 25.9 °F 21.2 °F 56% 30.14 in 1.5 mi WSW 16.1 mph 32.2 mph N/A   Haze
11:56 AM 33.1 °F 22.2 °F 23.0 °F 66% 30.21 in 3.0 mi WSW 17.3 mph 32.2 mph 0.00 in Snow Light Snow
11:59 AM 32.0 °F 21.2 °F 24.8 °F 75% 30.15 in 1.0 mi SW 16.1 mph 29.9 mph 0.00 in Snow Light Snow
12:02 PM 32.0 °F 22.5 °F 24.8 °F 75% 30.14 in 1.2 mi West 12.7 mph 25.3 mph 0.00 in Snow Light Snow
12:09 PM 32.0 °F 23.6 °F 24.8 °F 75% 30.14 in 5.0 mi WSW 10.4 mph - 0.00 in Snow Light Snow
12:56 PM 39.0 °F 31.4 °F 19.9 °F 46% 30.20 in 5.0 mi WSW 12.7 mph 21.9 mph 0.00 in   Unknown
1:56 PM 37.9 °F 31.5 °F 19.0 °F 47% 30.23 in 9.0 mi WSW 9.2 mph 21.9 mph 0.00 in Snow Light Snow
2:56 PM 41.0 °F 33.5 °F 19.0 °F 41% 30.22 in 10.0 mi SW 13.8 mph 21.9 mph 0.00 in   Overcast
3:56 PM 39.0 °F 31.8 °F 19.0 °F 45% 30.25 in 10.0 mi SW 11.5 mph 20.7 mph N/A   Overcast
4:56 PM 42.1 °F 35.2 °F 19.0 °F 40% 30.25 in 10.0 mi West 12.7 mph 20.7 mph N/A   Mostly Cloudy
5:56 PM 39.0 °F 33.4 °F 18.0 °F 43% 30.27 in 10.0 mi SW 8.1 mph - N/A   Mostly Cloudy
6:56 PM 37.0 °F - 19.9 °F 50% 30.29 in 10.0 mi Calm Calm - N/A   Partly Cloudy
7:56 PM 32.0 °F 28.7 °F 21.9 °F 66% 30.31 in 10.0 mi East 3.5 mph - N/A   Clear
8:56 PM 28.9 °F - 21.0 °F 72% 30.34 in 10.0 mi Calm Calm - N/A   Partly Cloudy
9:56 PM 30.0 °F 26.5 °F 23.0 °F 75% 30.35 in 10.0 mi West 3.5 mph - N/A   Clear
10:56 PM 25.0 °F 20.7 °F 19.9 °F 81% 30.36 in 10.0 mi East 3.5 mph - N/A   Clear
11:56 PM 24.1 °F 19.7 °F 19.9 °F 84% 30.38 in 10.0 mi NNE 3.5 mph - N/A   Clear